Year,Month,Day,Hour,Minute,Value (Times are PST for temperature in C)
2009,04,24,00,00,4.80
2009,04,24,00,01,4.80
2009,04,24,00,02,4.80
2009,04,24,00,03,4.80
2009,04,24,00,04,4.80
2009,04,24,00,05,4.80
2009,04,24,00,06,4.80
2009,04,24,00,07,4.80
2009,04,24,00,08,4.70
2009,04,24,00,09,4.70
2009,04,24,00,10,4.70
2009,04,24,00,11,4.70
2009,04,24,00,12,4.60
2009,04,24,00,13,4.60
2009,04,24,00,14,4.60
2009,04,24,00,15,4.60
2009,04,24,00,16,4.50
2009,04,24,00,17,4.50
2009,04,24,00,18,4.40
2009,04,24,00,19,4.40
2009,04,24,00,20,4.40
2009,04,24,00,21,4.30
2009,04,24,00,22,4.30
2009,04,24,00,23,4.30
2009,04,24,00,24,4.30
2009,04,24,00,25,4.30
2009,04,24,00,26,4.30
2009,04,24,00,27,4.40
2009,04,24,00,28,4.50
2009,04,24,00,29,4.50
2009,04,24,00,30,4.60
2009,04,24,00,31,4.70
2009,04,24,00,32,4.70
2009,04,24,00,33,4.70
2009,04,24,00,34,4.80
2009,04,24,00,35,4.80
2009,04,24,00,36,4.90
2009,04,24,00,37,5.00
2009,04,24,00,38,5.00
2009,04,24,00,39,5.10
2009,04,24,00,40,5.20
2009,04,24,00,41,5.20
2009,04,24,00,42,5.20
2009,04,24,00,43,5.20
2009,04,24,00,44,5.30
2009,04,24,00,45,5.30
2009,04,24,00,46,5.30
2009,04,24,00,47,5.30
2009,04,24,00,48,5.30
2009,04,24,00,49,5.30
2009,04,24,00,50,5.30
2009,04,24,00,51,5.30
2009,04,24,00,52,5.30
2009,04,24,00,53,5.30
2009,04,24,00,54,5.40
2009,04,24,00,55,5.40
2009,04,24,00,56,5.40
2009,04,24,00,57,5.40
2009,04,24,00,58,5.40
2009,04,24,00,59,5.30
2009,04,24,01,00,5.20
2009,04,24,01,01,5.20
2009,04,24,01,02,5.10
2009,04,24,01,03,5.10
2009,04,24,01,04,5.10
2009,04,24,01,05,5.00
2009,04,24,01,06,5.00
2009,04,24,01,07,4.90
2009,04,24,01,08,4.90
2009,04,24,01,09,4.80
2009,04,24,01,10,4.80
2009,04,24,01,11,4.80
2009,04,24,01,12,4.70
2009,04,24,01,13,4.70
2009,04,24,01,14,4.70
2009,04,24,01,15,4.70
2009,04,24,01,16,4.60
2009,04,24,01,17,4.60
2009,04,24,01,18,4.50
2009,04,24,01,19,4.40
2009,04,24,01,20,4.40
2009,04,24,01,21,4.30
2009,04,24,01,22,4.30
2009,04,24,01,23,4.20
2009,04,24,01,24,4.10
2009,04,24,01,25,4.10
2009,04,24,01,26,4.10
2009,04,24,01,27,4.00
2009,04,24,01,28,3.90
2009,04,24,01,29,3.80
2009,04,24,01,30,3.80
2009,04,24,01,31,3.70
2009,04,24,01,32,3.70
2009,04,24,01,33,3.60
2009,04,24,01,34,3.60
2009,04,24,01,35,3.60
2009,04,24,01,36,3.60
2009,04,24,01,37,3.50
2009,04,24,01,38,3.50
2009,04,24,01,39,3.40
2009,04,24,01,40,3.30
2009,04,24,01,41,3.30
2009,04,24,01,42,3.20
2009,04,24,01,43,3.10
2009,04,24,01,44,3.10
2009,04,24,01,45,3.00
2009,04,24,01,46,3.00
2009,04,24,01,47,2.90
2009,04,24,01,48,2.90
2009,04,24,01,49,2.90
2009,04,24,01,50,2.90
2009,04,24,01,51,2.90
2009,04,24,01,52,2.90
2009,04,24,01,53,2.80
2009,04,24,01,54,2.80
2009,04,24,01,55,2.80
2009,04,24,01,56,2.80
2009,04,24,01,57,2.80
2009,04,24,01,58,2.70
2009,04,24,01,59,2.70
2009,04,24,02,00,2.70
2009,04,24,02,01,2.70
2009,04,24,02,02,2.70
2009,04,24,02,03,2.70
2009,04,24,02,04,2.70
2009,04,24,02,05,2.80
2009,04,24,02,06,2.80
2009,04,24,02,07,2.90
2009,04,24,02,08,3.00
2009,04,24,02,09,3.00
2009,04,24,02,10,3.10
2009,04,24,02,11,3.10
2009,04,24,02,12,3.20
2009,04,24,02,13,3.20
2009,04,24,02,14,3.10
2009,04,24,02,15,3.10
2009,04,24,02,16,3.00
2009,04,24,02,17,3.00
2009,04,24,02,18,2.90
2009,04,24,02,19,2.90
2009,04,24,02,20,2.80
2009,04,24,02,21,2.80
2009,04,24,02,22,2.80
2009,04,24,02,23,2.80
2009,04,24,02,24,2.70
2009,04,24,02,25,2.70
2009,04,24,02,26,2.70
2009,04,24,02,27,2.70
2009,04,24,02,28,2.70
2009,04,24,02,29,2.70
2009,04,24,02,30,2.70
2009,04,24,02,31,2.70
2009,04,24,02,32,2.70
2009,04,24,02,33,2.70
2009,04,24,02,34,2.70
2009,04,24,02,35,2.60
2009,04,24,02,36,2.60
2009,04,24,02,37,2.50
2009,04,24,02,38,2.50
2009,04,24,02,39,2.50
2009,04,24,02,40,2.50
2009,04,24,02,41,2.50
2009,04,24,02,42,2.50
2009,04,24,02,43,2.50
2009,04,24,02,44,2.60
2009,04,24,02,45,2.60
2009,04,24,02,46,2.60
2009,04,24,02,47,2.60
2009,04,24,02,48,2.70
2009,04,24,02,49,2.70
2009,04,24,02,50,2.70
2009,04,24,02,51,2.70
2009,04,24,02,52,2.70
2009,04,24,02,53,2.70
2009,04,24,02,54,2.70
2009,04,24,02,55,2.70
2009,04,24,02,56,2.70
2009,04,24,02,57,2.70
2009,04,24,02,58,2.70
2009,04,24,02,59,2.70
2009,04,24,03,00,2.60
2009,04,24,03,01,2.60
2009,04,24,03,02,2.60
2009,04,24,03,03,2.60
2009,04,24,03,04,2.50
2009,04,24,03,05,2.50
2009,04,24,03,06,2.50
2009,04,24,03,07,2.50
2009,04,24,03,08,2.50
2009,04,24,03,09,2.50
2009,04,24,03,10,2.60
2009,04,24,03,11,2.60
2009,04,24,03,12,2.60
2009,04,24,03,13,2.60
2009,04,24,03,14,2.60
2009,04,24,03,15,2.60
2009,04,24,03,16,2.60
2009,04,24,03,17,2.60
2009,04,24,03,18,2.60
2009,04,24,03,19,2.60
2009,04,24,03,20,2.60
2009,04,24,03,21,2.50
2009,04,24,03,22,2.60
2009,04,24,03,23,2.50
2009,04,24,03,24,2.60
2009,04,24,03,25,2.60
2009,04,24,03,26,2.60
2009,04,24,03,27,2.60
2009,04,24,03,28,2.60
2009,04,24,03,29,2.60
2009,04,24,03,30,2.60
2009,04,24,03,31,2.50
2009,04,24,03,32,2.50
2009,04,24,03,33,2.40
2009,04,24,03,34,2.40
2009,04,24,03,35,2.30
2009,04,24,03,36,2.20
2009,04,24,03,37,2.20
2009,04,24,03,38,2.20
2009,04,24,03,39,2.20
2009,04,24,03,40,2.20
2009,04,24,03,41,2.20
2009,04,24,03,42,2.20
2009,04,24,03,43,2.10
2009,04,24,03,44,2.10
2009,04,24,03,45,2.10
2009,04,24,03,46,2.10
2009,04,24,03,47,2.10
2009,04,24,03,48,2.00
2009,04,24,03,49,2.00
2009,04,24,03,50,2.00
2009,04,24,03,51,1.90
2009,04,24,03,52,1.90
2009,04,24,03,53,1.90
2009,04,24,03,54,1.90
2009,04,24,03,55,1.80
2009,04,24,03,56,1.80
2009,04,24,03,57,1.70
2009,04,24,03,58,1.60
2009,04,24,03,59,1.60
2009,04,24,04,00,1.50
2009,04,24,04,01,1.40
2009,04,24,04,02,1.30
2009,04,24,04,03,1.30
2009,04,24,04,04,1.30
2009,04,24,04,05,1.30
2009,04,24,04,06,1.40
2009,04,24,04,07,1.40
2009,04,24,04,08,1.50
2009,04,24,04,09,1.60
2009,04,24,04,10,1.70
2009,04,24,04,11,1.70
2009,04,24,04,12,1.80
2009,04,24,04,13,1.80
2009,04,24,04,14,1.80
2009,04,24,04,15,1.80
2009,04,24,04,16,1.70
2009,04,24,04,17,1.70
2009,04,24,04,18,1.70
2009,04,24,04,19,1.80
2009,04,24,04,20,1.80
2009,04,24,04,21,1.80
2009,04,24,04,22,1.80
2009,04,24,04,23,1.90
2009,04,24,04,24,1.90
2009,04,24,04,25,1.90
2009,04,24,04,26,1.90
2009,04,24,04,27,1.90
2009,04,24,04,28,1.90
2009,04,24,04,29,1.90
2009,04,24,04,30,1.90
2009,04,24,04,31,1.90
2009,04,24,04,32,1.90
2009,04,24,04,33,1.90
2009,04,24,04,34,1.90
2009,04,24,04,35,1.80
2009,04,24,04,36,1.80
2009,04,24,04,37,1.80
2009,04,24,04,38,1.80
2009,04,24,04,39,1.70
2009,04,24,04,40,1.70
2009,04,24,04,41,1.70
2009,04,24,04,42,1.70
2009,04,24,04,43,1.70
2009,04,24,04,44,1.70
2009,04,24,04,45,1.70
2009,04,24,04,46,1.80
2009,04,24,04,47,1.80
2009,04,24,04,48,1.80
2009,04,24,04,49,1.80
2009,04,24,04,50,1.80
2009,04,24,04,51,1.80
2009,04,24,04,52,1.90
2009,04,24,04,53,1.90
2009,04,24,04,54,1.90
2009,04,24,04,55,1.80
2009,04,24,04,56,1.80
2009,04,24,04,57,1.80
2009,04,24,04,58,1.80
2009,04,24,04,59,1.70
2009,04,24,05,00,1.70
2009,04,24,05,01,1.70
2009,04,24,05,02,1.70
2009,04,24,05,03,1.70
2009,04,24,05,04,1.60
2009,04,24,05,05,1.60
2009,04,24,05,06,1.60
2009,04,24,05,07,1.60
2009,04,24,05,08,1.60
2009,04,24,05,09,1.50
2009,04,24,05,10,1.50
2009,04,24,05,11,1.50
2009,04,24,05,12,1.50
2009,04,24,05,13,1.40
2009,04,24,05,14,1.40
2009,04,24,05,15,1.40
2009,04,24,05,16,1.40
2009,04,24,05,17,1.40
2009,04,24,05,18,1.40
2009,04,24,05,19,1.40
2009,04,24,05,20,1.40
2009,04,24,05,21,1.30
2009,04,24,05,22,1.30
2009,04,24,05,23,1.30
2009,04,24,05,24,1.30
2009,04,24,05,25,1.30
2009,04,24,05,26,1.30
2009,04,24,05,27,1.30
2009,04,24,05,28,1.30
2009,04,24,05,29,1.30
2009,04,24,05,30,1.30
2009,04,24,05,31,1.30
2009,04,24,05,32,1.30
2009,04,24,05,33,1.30
2009,04,24,05,34,1.20
2009,04,24,05,35,1.10
2009,04,24,05,36,1.10
2009,04,24,05,37,1.00
2009,04,24,05,38,1.00
2009,04,24,05,39,1.00
2009,04,24,05,40,1.00
2009,04,24,05,41,1.00
2009,04,24,05,42,1.00
2009,04,24,05,43,1.00
2009,04,24,05,44,1.00
2009,04,24,05,45,1.00
2009,04,24,05,46,1.00
2009,04,24,05,47,1.00
2009,04,24,05,48,0.90
2009,04,24,05,49,1.00
2009,04,24,05,50,1.00
2009,04,24,05,51,1.10
2009,04,24,05,52,1.10
2009,04,24,05,53,1.10
2009,04,24,05,54,1.10
2009,04,24,05,55,1.10
2009,04,24,05,56,1.20
2009,04,24,05,57,1.20
2009,04,24,05,58,1.20
2009,04,24,05,59,1.30
2009,04,24,06,00,1.30
2009,04,24,06,01,1.30
2009,04,24,06,02,1.30
2009,04,24,06,03,1.30
2009,04,24,06,04,1.30
2009,04,24,06,05,1.30
2009,04,24,06,06,1.30
2009,04,24,06,07,1.30
2009,04,24,06,08,1.30
2009,04,24,06,09,1.30
2009,04,24,06,10,1.30
2009,04,24,06,11,1.30
2009,04,24,06,12,1.30
2009,04,24,06,13,1.30
2009,04,24,06,14,1.30
2009,04,24,06,15,1.30
2009,04,24,06,16,1.30
2009,04,24,06,17,1.30
2009,04,24,06,18,1.30
2009,04,24,06,19,1.30
2009,04,24,06,20,1.30
2009,04,24,06,21,1.30
2009,04,24,06,22,1.30
2009,04,24,06,23,1.30
2009,04,24,06,24,1.20
2009,04,24,06,25,1.20
2009,04,24,06,26,1.20
2009,04,24,06,27,1.20
2009,04,24,06,28,1.20
2009,04,24,06,29,1.20
2009,04,24,06,30,1.20
2009,04,24,06,31,1.20
2009,04,24,06,32,1.20
2009,04,24,06,33,1.20
2009,04,24,06,34,1.20
2009,04,24,06,35,1.30
2009,04,24,06,36,1.30
2009,04,24,06,37,1.30
2009,04,24,06,38,1.30
2009,04,24,06,39,1.30
2009,04,24,06,40,1.40
2009,04,24,06,41,1.50
2009,04,24,06,42,1.60
2009,04,24,06,43,1.60
2009,04,24,06,44,1.70
2009,04,24,06,45,1.70
2009,04,24,06,46,1.70
2009,04,24,06,47,1.70
2009,04,24,06,48,1.70
2009,04,24,06,49,1.70
2009,04,24,06,50,1.70
2009,04,24,06,51,1.70
2009,04,24,06,52,1.70
2009,04,24,06,53,1.80
2009,04,24,06,54,1.80
2009,04,24,06,55,1.80
2009,04,24,06,56,1.90
2009,04,24,06,57,1.90
2009,04,24,06,58,1.90
2009,04,24,06,59,2.00
2009,04,24,07,00,2.00
2009,04,24,07,01,2.00
2009,04,24,07,02,2.10
2009,04,24,07,03,2.10
2009,04,24,07,04,2.20
2009,04,24,07,05,2.20
2009,04,24,07,06,2.30
2009,04,24,07,07,2.30
2009,04,24,07,08,2.40
2009,04,24,07,09,2.50
2009,04,24,07,10,2.50
2009,04,24,07,11,2.70
2009,04,24,07,12,2.70
2009,04,24,07,13,2.90
2009,04,24,07,14,3.00
2009,04,24,07,15,3.10
2009,04,24,07,16,3.20
2009,04,24,07,17,3.20
2009,04,24,07,18,3.30
2009,04,24,07,19,3.40
2009,04,24,07,20,3.50
2009,04,24,07,21,3.60
2009,04,24,07,22,3.60
2009,04,24,07,23,3.70
2009,04,24,07,24,3.80
2009,04,24,07,25,3.80
2009,04,24,07,26,3.90
2009,04,24,07,27,3.90
2009,04,24,07,28,4.00
2009,04,24,07,29,4.00
2009,04,24,07,30,4.10
2009,04,24,07,31,4.10
2009,04,24,07,32,4.20
2009,04,24,07,33,4.20
2009,04,24,07,34,4.30
2009,04,24,07,35,4.30
2009,04,24,07,36,4.40
2009,04,24,07,37,4.40
2009,04,24,07,38,4.50
2009,04,24,07,39,4.50
2009,04,24,07,40,4.50
2009,04,24,07,41,4.60
2009,04,24,07,42,4.60
2009,04,24,07,43,4.70
2009,04,24,07,44,4.70
2009,04,24,07,45,4.70
2009,04,24,07,46,4.80
2009,04,24,07,47,4.80
2009,04,24,07,48,4.80
2009,04,24,07,49,4.90
2009,04,24,07,50,4.90
2009,04,24,07,51,5.00
2009,04,24,07,52,5.10
2009,04,24,07,53,5.10
2009,04,24,07,54,5.10
2009,04,24,07,55,5.20
2009,04,24,07,56,5.20
2009,04,24,07,57,5.20
2009,04,24,07,58,5.30
2009,04,24,07,59,5.30
2009,04,24,08,00,5.30
2009,04,24,08,01,5.30
2009,04,24,08,02,5.30
2009,04,24,08,03,5.40
2009,04,24,08,04,5.40
2009,04,24,08,05,5.40
2009,04,24,08,06,5.50
2009,04,24,08,07,5.50
2009,04,24,08,08,5.50
2009,04,24,08,09,5.60
2009,04,24,08,10,5.60
2009,04,24,08,11,5.70
2009,04,24,08,12,5.70
2009,04,24,08,13,5.70
2009,04,24,08,14,5.80
2009,04,24,08,15,5.80
2009,04,24,08,16,5.90
2009,04,24,08,17,5.90
2009,04,24,08,18,6.00
2009,04,24,08,19,6.00
2009,04,24,08,20,6.10
2009,04,24,08,21,6.20
2009,04,24,08,22,6.20
2009,04,24,08,23,6.30
2009,04,24,08,24,6.30
2009,04,24,08,25,6.40
2009,04,24,08,26,6.40
2009,04,24,08,27,6.50
2009,04,24,08,28,6.60
2009,04,24,08,29,6.60
2009,04,24,08,30,6.70
2009,04,24,08,31,6.70
2009,04,24,08,32,6.80
2009,04,24,08,33,6.90
2009,04,24,08,34,7.00
2009,04,24,08,35,7.10
2009,04,24,08,36,7.20
2009,04,24,08,37,7.30
2009,04,24,08,38,7.40
2009,04,24,08,39,7.40
2009,04,24,08,40,7.50
2009,04,24,08,41,7.50
2009,04,24,08,42,7.50
2009,04,24,08,43,7.60
2009,04,24,08,44,7.60
2009,04,24,08,45,7.50
2009,04,24,08,46,7.60
2009,04,24,08,47,7.60
2009,04,24,08,48,7.60
2009,04,24,08,49,7.70
2009,04,24,08,50,7.70
2009,04,24,08,51,7.70
2009,04,24,08,52,7.80
2009,04,24,08,53,7.80
2009,04,24,08,54,7.90
2009,04,24,08,55,7.90
2009,04,24,08,56,8.00
2009,04,24,08,57,8.00
2009,04,24,08,58,8.00
2009,04,24,08,59,8.00
2009,04,24,09,00,8.00
2009,04,24,09,01,7.90
2009,04,24,09,02,7.90
2009,04,24,09,03,7.90
2009,04,24,09,04,7.90
2009,04,24,09,05,7.90
2009,04,24,09,06,7.90
2009,04,24,09,07,7.80
2009,04,24,09,08,7.90
2009,04,24,09,09,8.00
2009,04,24,09,10,8.10
2009,04,24,09,11,8.20
2009,04,24,09,12,8.20
2009,04,24,09,13,8.30
2009,04,24,09,14,8.30
2009,04,24,09,15,8.30
2009,04,24,09,16,8.40
2009,04,24,09,17,8.40
2009,04,24,09,18,8.40
2009,04,24,09,19,8.40
2009,04,24,09,20,8.30
2009,04,24,09,21,8.30
2009,04,24,09,22,8.30
2009,04,24,09,23,8.20
2009,04,24,09,24,8.20
2009,04,24,09,25,8.10
2009,04,24,09,26,8.10
2009,04,24,09,27,8.10
2009,04,24,09,28,8.10
2009,04,24,09,29,8.10
2009,04,24,09,30,8.20
2009,04,24,09,31,8.20
2009,04,24,09,32,8.20
2009,04,24,09,33,8.30
2009,04,24,09,34,8.30
2009,04,24,09,35,8.30
2009,04,24,09,36,8.30
2009,04,24,09,37,8.40
2009,04,24,09,38,8.40
2009,04,24,09,39,8.40
2009,04,24,09,40,8.40
2009,04,24,09,41,8.30
2009,04,24,09,42,8.30
2009,04,24,09,43,8.30
2009,04,24,09,44,8.30
2009,04,24,09,45,8.30
2009,04,24,09,46,8.30
2009,04,24,09,47,8.40
2009,04,24,09,48,8.50
2009,04,24,09,49,8.60
2009,04,24,09,50,8.70
2009,04,24,09,51,8.70
2009,04,24,09,52,8.70
2009,04,24,09,53,8.70
2009,04,24,09,54,8.70
2009,04,24,09,55,8.70
2009,04,24,09,56,8.70
2009,04,24,09,57,8.60
2009,04,24,09,58,8.60
2009,04,24,09,59,8.60
2009,04,24,10,00,8.70
2009,04,24,10,01,8.80
2009,04,24,10,02,8.80
2009,04,24,10,03,8.80
2009,04,24,10,04,8.70
2009,04,24,10,05,8.70
2009,04,24,10,06,8.80
2009,04,24,10,07,8.70
2009,04,24,10,08,8.70
2009,04,24,10,09,8.60
2009,04,24,10,10,8.60
2009,04,24,10,11,8.60
2009,04,24,10,12,8.60
2009,04,24,10,13,8.60
2009,04,24,10,14,8.60
2009,04,24,10,15,8.70
2009,04,24,10,16,8.70
2009,04,24,10,17,8.70
2009,04,24,10,18,8.60
2009,04,24,10,19,8.60
2009,04,24,10,20,8.60
2009,04,24,10,21,8.60
2009,04,24,10,22,8.60
2009,04,24,10,23,8.60
2009,04,24,10,24,8.60
2009,04,24,10,25,8.70
2009,04,24,10,26,8.70
2009,04,24,10,27,8.80
2009,04,24,10,28,8.80
2009,04,24,10,29,8.80
2009,04,24,10,30,8.90
2009,04,24,10,31,9.00
2009,04,24,10,32,9.10
2009,04,24,10,33,9.20
2009,04,24,10,34,9.20
2009,04,24,10,35,9.20
2009,04,24,10,36,9.10
2009,04,24,10,37,9.10
2009,04,24,10,38,9.10
2009,04,24,10,39,9.10
2009,04,24,10,40,9.20
2009,04,24,10,41,9.20
2009,04,24,10,42,9.20
2009,04,24,10,43,9.30
2009,04,24,10,44,9.30
2009,04,24,10,45,9.30
2009,04,24,10,46,9.30
2009,04,24,10,47,9.30
2009,04,24,10,48,9.30
2009,04,24,10,49,9.20
2009,04,24,10,50,9.20
2009,04,24,10,51,9.20
2009,04,24,10,52,9.20
2009,04,24,10,53,9.40
2009,04,24,10,54,9.50
2009,04,24,10,55,9.60
2009,04,24,10,56,9.50
2009,04,24,10,57,9.50
2009,04,24,10,58,9.50
2009,04,24,10,59,9.60
2009,04,24,11,00,9.50
2009,04,24,11,01,9.50
2009,04,24,11,02,9.50
2009,04,24,11,03,9.50
2009,04,24,11,04,9.60
2009,04,24,11,05,9.60
2009,04,24,11,06,9.60
2009,04,24,11,07,9.50
2009,04,24,11,08,9.50
2009,04,24,11,09,9.40
2009,04,24,11,10,9.50
2009,04,24,11,11,9.60
2009,04,24,11,12,9.70
2009,04,24,11,13,9.70
2009,04,24,11,14,9.60
2009,04,24,11,15,9.40
2009,04,24,11,16,9.30
2009,04,24,11,17,9.30
2009,04,24,11,18,9.40
2009,04,24,11,19,9.30
2009,04,24,11,20,9.20
2009,04,24,11,21,9.00
2009,04,24,11,22,8.90
2009,04,24,11,23,8.80
2009,04,24,11,24,8.70
2009,04,24,11,25,8.70
2009,04,24,11,26,8.70
2009,04,24,11,27,8.70
2009,04,24,11,28,8.70
2009,04,24,11,29,8.70
2009,04,24,11,30,8.80
2009,04,24,11,31,8.80
2009,04,24,11,32,8.80
2009,04,24,11,33,8.90
2009,04,24,11,34,8.90
2009,04,24,11,35,9.00
2009,04,24,11,36,9.10
2009,04,24,11,37,9.20
2009,04,24,11,38,9.20
2009,04,24,11,39,9.30
2009,04,24,11,40,9.30
2009,04,24,11,41,9.20
2009,04,24,11,42,9.20
2009,04,24,11,43,9.20
2009,04,24,11,44,9.30
2009,04,24,11,45,9.20
2009,04,24,11,46,9.20
2009,04,24,11,47,9.20
2009,04,24,11,48,9.20
2009,04,24,11,49,9.20
2009,04,24,11,50,9.30
2009,04,24,11,51,9.20
2009,04,24,11,52,9.20
2009,04,24,11,53,9.10
2009,04,24,11,54,9.00
2009,04,24,11,55,9.00
2009,04,24,11,56,9.00
2009,04,24,11,57,9.00
2009,04,24,11,58,9.10
2009,04,24,11,59,9.20
2009,04,24,12,00,9.20
2009,04,24,12,01,9.20
2009,04,24,12,02,9.20
2009,04,24,12,03,9.20
2009,04,24,12,04,9.20
2009,04,24,12,05,9.30
2009,04,24,12,06,9.50
2009,04,24,12,07,9.60
2009,04,24,12,08,9.70
2009,04,24,12,09,9.70
2009,04,24,12,10,9.80
2009,04,24,12,11,9.90
2009,04,24,12,12,9.80
2009,04,24,12,13,9.90
2009,04,24,12,14,9.80
2009,04,24,12,15,9.80
2009,04,24,12,16,9.80
2009,04,24,12,17,9.80
2009,04,24,12,18,9.70
2009,04,24,12,19,9.80
2009,04,24,12,20,9.80
2009,04,24,12,21,9.80
2009,04,24,12,22,9.90
2009,04,24,12,23,9.90
2009,04,24,12,24,9.80
2009,04,24,12,25,9.70
2009,04,24,12,26,9.80
2009,04,24,12,27,9.80
2009,04,24,12,28,9.70
2009,04,24,12,29,9.70
2009,04,24,12,30,9.70
2009,04,24,12,31,9.70
2009,04,24,12,32,9.70
2009,04,24,12,33,9.80
2009,04,24,12,34,9.80
2009,04,24,12,35,9.80
2009,04,24,12,36,9.80
2009,04,24,12,37,9.80
2009,04,24,12,38,9.80
2009,04,24,12,39,9.80
2009,04,24,12,40,9.70
2009,04,24,12,41,9.70
2009,04,24,12,42,9.70
2009,04,24,12,43,9.80
2009,04,24,12,44,9.80
2009,04,24,12,45,9.70
2009,04,24,12,46,9.70
2009,04,24,12,47,9.70
2009,04,24,12,48,9.80
2009,04,24,12,49,9.80
2009,04,24,12,50,9.90
2009,04,24,12,51,9.80
2009,04,24,12,52,9.70
2009,04,24,12,53,9.70
2009,04,24,12,54,9.70
2009,04,24,12,55,9.70
2009,04,24,12,56,9.80
2009,04,24,12,57,9.80
2009,04,24,12,58,9.80
2009,04,24,12,59,9.90
2009,04,24,13,00,9.90
2009,04,24,13,01,10.00
2009,04,24,13,02,9.90
2009,04,24,13,03,9.90
2009,04,24,13,04,9.90
2009,04,24,13,05,9.90
2009,04,24,13,06,10.00
2009,04,24,13,07,10.00
2009,04,24,13,08,10.00
2009,04,24,13,09,10.00
2009,04,24,13,10,10.00
2009,04,24,13,11,9.80
2009,04,24,13,12,9.80
2009,04,24,13,13,9.80
2009,04,24,13,14,9.80
2009,04,24,13,15,9.80
2009,04,24,13,16,9.70
2009,04,24,13,17,9.70
2009,04,24,13,18,9.70
2009,04,24,13,19,9.70
2009,04,24,13,20,9.70
2009,04,24,13,21,9.80
2009,04,24,13,22,9.80
2009,04,24,13,23,9.90
2009,04,24,13,24,9.90
2009,04,24,13,25,9.90
2009,04,24,13,26,9.90
2009,04,24,13,27,9.90
2009,04,24,13,28,10.00
2009,04,24,13,29,10.00
2009,04,24,13,30,10.00
2009,04,24,13,31,10.00
2009,04,24,13,32,10.20
2009,04,24,13,33,10.20
2009,04,24,13,34,10.30
2009,04,24,13,35,10.30
2009,04,24,13,36,10.30
2009,04,24,13,37,10.30
2009,04,24,13,38,10.30
2009,04,24,13,39,10.20
2009,04,24,13,40,10.20
2009,04,24,13,41,10.10
2009,04,24,13,42,10.10
2009,04,24,13,43,10.00
2009,04,24,13,44,10.00
2009,04,24,13,45,9.90
2009,04,24,13,46,10.00
2009,04,24,13,47,10.00
2009,04,24,13,48,10.00
2009,04,24,13,49,10.00
2009,04,24,13,50,10.00
2009,04,24,13,51,10.00
2009,04,24,13,52,9.90
2009,04,24,13,53,9.90
2009,04,24,13,54,9.80
2009,04,24,13,55,9.80
2009,04,24,13,56,9.80
2009,04,24,13,57,9.90
2009,04,24,13,58,9.90
2009,04,24,13,59,9.90
2009,04,24,14,00,10.10
2009,04,24,14,01,10.10
2009,04,24,14,02,10.20
2009,04,24,14,03,10.30
2009,04,24,14,04,10.40
2009,04,24,14,05,10.50
2009,04,24,14,06,10.50
2009,04,24,14,07,10.50
2009,04,24,14,08,10.40
2009,04,24,14,09,10.40
2009,04,24,14,10,10.30
2009,04,24,14,11,10.30
2009,04,24,14,12,10.40
2009,04,24,14,13,10.40
2009,04,24,14,14,10.40
2009,04,24,14,15,10.40
2009,04,24,14,16,10.40
2009,04,24,14,17,10.50
2009,04,24,14,18,10.70
2009,04,24,14,19,10.90
2009,04,24,14,20,11.00
2009,04,24,14,21,11.10
2009,04,24,14,22,11.10
2009,04,24,14,23,11.10
2009,04,24,14,24,11.10
2009,04,24,14,25,11.00
2009,04,24,14,26,10.80
2009,04,24,14,27,10.80
2009,04,24,14,28,10.80
2009,04,24,14,29,10.80
2009,04,24,14,30,10.80
2009,04,24,14,31,10.80
2009,04,24,14,32,10.70
2009,04,24,14,33,10.70
2009,04,24,14,34,10.70
2009,04,24,14,35,10.70
2009,04,24,14,36,10.70
2009,04,24,14,37,10.80
2009,04,24,14,38,10.80
2009,04,24,14,39,10.80
2009,04,24,14,40,10.80
2009,04,24,14,41,10.70
2009,04,24,14,42,10.80
2009,04,24,14,43,10.80
2009,04,24,14,44,10.80
2009,04,24,14,45,10.80
2009,04,24,14,46,10.80
2009,04,24,14,47,10.80
2009,04,24,14,48,10.90
2009,04,24,14,49,11.00
2009,04,24,14,50,11.10
2009,04,24,14,51,11.00
2009,04,24,14,52,11.10
2009,04,24,14,53,11.20
2009,04,24,14,54,11.20
2009,04,24,14,55,11.10
2009,04,24,14,56,11.10
2009,04,24,14,57,11.10
2009,04,24,14,58,11.00
2009,04,24,14,59,10.90
2009,04,24,15,00,11.00
2009,04,24,15,01,11.00
2009,04,24,15,02,11.10
2009,04,24,15,03,11.20
2009,04,24,15,04,11.20
2009,04,24,15,05,11.20
2009,04,24,15,06,11.20
2009,04,24,15,07,11.10
2009,04,24,15,08,11.10
2009,04,24,15,09,11.10
2009,04,24,15,10,11.10
2009,04,24,15,11,11.20
2009,04,24,15,12,11.20
2009,04,24,15,13,11.20
2009,04,24,15,14,11.20
2009,04,24,15,15,11.20
2009,04,24,15,16,11.20
2009,04,24,15,17,11.30
2009,04,24,15,18,11.30
2009,04,24,15,19,11.30
2009,04,24,15,20,11.30
2009,04,24,15,21,11.30
2009,04,24,15,22,11.40
2009,04,24,15,23,11.50
2009,04,24,15,24,11.60
2009,04,24,15,25,11.70
2009,04,24,15,26,11.90
2009,04,24,15,27,11.90
2009,04,24,15,28,11.80
2009,04,24,15,29,11.80
2009,04,24,15,30,11.90
2009,04,24,15,31,11.90
2009,04,24,15,32,11.90
2009,04,24,15,33,11.90
2009,04,24,15,34,11.80
2009,04,24,15,35,11.70
2009,04,24,15,36,11.70
2009,04,24,15,37,11.70
2009,04,24,15,38,11.70
2009,04,24,15,39,11.70
2009,04,24,15,40,11.60
2009,04,24,15,41,11.60
2009,04,24,15,42,11.70
2009,04,24,15,43,11.60
2009,04,24,15,44,11.60
2009,04,24,15,45,11.60
2009,04,24,15,46,11.60
2009,04,24,15,47,11.60
2009,04,24,15,48,11.70
2009,04,24,15,49,11.70
2009,04,24,15,50,11.80
2009,04,24,15,51,11.90
2009,04,24,15,52,11.80
2009,04,24,15,53,11.90
2009,04,24,15,54,11.90
2009,04,24,15,55,11.90
2009,04,24,15,56,12.00
2009,04,24,15,57,12.00
2009,04,24,15,58,12.00
2009,04,24,15,59,12.00
2009,04,24,16,00,12.10
2009,04,24,16,01,12.10
2009,04,24,16,02,12.20
2009,04,24,16,03,12.20
2009,04,24,16,04,12.20
2009,04,24,16,05,12.30
2009,04,24,16,06,12.30
2009,04,24,16,07,12.30
2009,04,24,16,08,12.30
2009,04,24,16,09,12.20
2009,04,24,16,10,12.30
2009,04,24,16,11,12.30
2009,04,24,16,12,12.30
2009,04,24,16,13,12.30
2009,04,24,16,14,12.30
2009,04,24,16,15,12.40
2009,04,24,16,16,12.40
2009,04,24,16,17,12.30
2009,04,24,16,18,12.40
2009,04,24,16,19,12.40
2009,04,24,16,20,12.50
2009,04,24,16,21,12.60
2009,04,24,16,22,12.70
2009,04,24,16,23,12.70
2009,04,24,16,24,12.60
2009,04,24,16,25,12.60
2009,04,24,16,26,12.60
2009,04,24,16,27,12.60
2009,04,24,16,28,12.60
2009,04,24,16,29,12.60
2009,04,24,16,30,12.70
2009,04,24,16,31,12.60
2009,04,24,16,32,12.60
2009,04,24,16,33,12.60
2009,04,24,16,34,12.50
2009,04,24,16,35,12.50
2009,04,24,16,36,12.40
2009,04,24,16,37,12.40
2009,04,24,16,38,12.40
2009,04,24,16,39,12.30
2009,04,24,16,40,12.10
2009,04,24,16,41,12.00
2009,04,24,16,42,12.00
2009,04,24,16,43,12.00
2009,04,24,16,44,12.00
2009,04,24,16,45,12.00
2009,04,24,16,46,12.00
2009,04,24,16,47,12.00
2009,04,24,16,48,11.90
2009,04,24,16,49,11.90
2009,04,24,16,50,11.80
2009,04,24,16,51,11.80
2009,04,24,16,52,11.70
2009,04,24,16,53,11.70
2009,04,24,16,54,11.70
2009,04,24,16,55,11.70
2009,04,24,16,56,11.60
2009,04,24,16,57,11.50
2009,04,24,16,58,11.30
2009,04,24,16,59,11.20
2009,04,24,17,00,11.10
2009,04,24,17,01,11.00
2009,04,24,17,02,11.00
2009,04,24,17,03,10.90
2009,04,24,17,04,10.80
2009,04,24,17,05,10.80
2009,04,24,17,06,10.80
2009,04,24,17,07,10.80
2009,04,24,17,08,10.80
2009,04,24,17,09,10.80
2009,04,24,17,10,10.80
2009,04,24,17,11,10.80
2009,04,24,17,12,10.80
2009,04,24,17,13,10.90
2009,04,24,17,14,10.80
2009,04,24,17,15,10.80
2009,04,24,17,16,10.90
2009,04,24,17,17,11.00
2009,04,24,17,18,11.10
2009,04,24,17,19,11.30
2009,04,24,17,20,11.30
2009,04,24,17,21,11.30
2009,04,24,17,22,11.40
2009,04,24,17,23,11.40
2009,04,24,17,24,11.50
2009,04,24,17,25,11.60
2009,04,24,17,26,11.60
2009,04,24,17,27,11.70
2009,04,24,17,28,11.70
2009,04,24,17,29,11.80
2009,04,24,17,30,11.80
2009,04,24,17,31,11.80
2009,04,24,17,32,11.80
2009,04,24,17,33,11.80
2009,04,24,17,34,11.80
2009,04,24,17,35,11.80
2009,04,24,17,36,11.80
2009,04,24,17,37,11.90
2009,04,24,17,38,12.00
2009,04,24,17,39,12.00
2009,04,24,17,40,12.10
2009,04,24,17,41,12.20
2009,04,24,17,42,12.30
2009,04,24,17,43,12.40
2009,04,24,17,44,12.50
2009,04,24,17,45,12.50
2009,04,24,17,46,12.60
2009,04,24,17,47,12.60
2009,04,24,17,48,12.70
2009,04,24,17,49,12.70
2009,04,24,17,50,12.70
2009,04,24,17,51,12.80
2009,04,24,17,52,12.80
2009,04,24,17,53,12.90
2009,04,24,17,54,13.00